Date String (YYYY-MM-DD hh:mm:ss) UTC,Instrument flags,Ambient pressure (hPa),Sample flow (lpm),Bypass flow (lpm),Sample temperature (°C),Ambient temperature (°C),ASC tube jacket temperature (°C),LED temperature (°C),Box temperature (°C),Sample RH (%),Span deviation,Mass concentration (μg/m³),Mass concentration (μg/m³),Mass concentration (μg/m³)
DateTimeUTC,F1_M11,P_M11,Q1_M11,Q2_M11,T1_M11,T2_M11,T3_M11,T4_M11,T5_M11,U1_M11,ZSPAN_M11,X0_M11,X2_M11,X1_M11
2022-01-30 23:00:00,,0823.4,5.01,0.00,28.9,28.1,00.0,37.7,30.7,05.5,0000.0,0009.49,0005.96,0005.71
2022-01-30 23:01:00,,0823.4,4.98,0.00,28.9,28.1,00.0,37.7,30.7,05.5,0000.0,0009.59,0006.01,0005.75
2022-01-30 23:02:00,,0823.4,5.02,0.00,28.9,28.1,00.0,37.7,30.7,05.5,0000.0,0009.62,0006.03,0005.77
2022-01-30 23:03:00,,0823.4,5.00,0.00,28.9,28.1,00.0,37.7,30.7,05.4,0000.0,0009.58,0006.02,0005.78
2022-01-30 23:04:00,,0823.4,5.02,0.00,28.9,28.2,00.0,37.8,30.7,05.3,0000.0,0009.60,0006.04,0005.80
2022-01-30 23:05:00,,0823.4,4.99,0.00,28.9,28.2,00.0,37.8,30.7,05.4,0000.0,0009.50,0006.04,0005.81
2022-01-30 23:06:00,,0823.4,5.02,0.00,28.9,28.2,00.0,37.8,30.7,05.6,0000.0,0009.46,0006.06,0005.82
2022-01-30 23:07:00,,0823.4,4.98,0.00,28.9,28.2,00.0,37.8,30.8,05.8,0000.0,0009.47,0006.10,0005.86
2022-01-30 23:08:00,,0823.4,5.01,0.00,28.9,28.2,00.0,37.8,30.8,05.9,0000.0,0009.44,0006.13,0005.92
2022-01-30 23:09:00,,0823.4,5.00,0.00,28.9,28.2,00.0,37.8,30.8,05.9,0000.0,0009.41,0006.17,0005.95
2022-01-30 23:10:00,,0823.4,5.00,0.00,28.9,28.2,00.0,37.8,30.8,05.9,0000.0,0009.44,0006.21,0005.98
2022-01-30 23:11:00,,0823.4,5.01,0.00,28.9,28.2,00.0,37.8,30.8,05.6,0000.0,0009.51,0006.26,0006.02
2022-01-30 23:12:00,,0823.3,4.98,0.00,29.0,28.2,00.0,37.8,30.8,05.6,0000.0,0009.64,0006.29,0006.05
2022-01-30 23:13:00,,0823.3,5.01,0.00,29.0,28.2,00.0,37.8,30.8,05.6,0000.0,0009.97,0006.31,0006.08
2022-01-30 23:14:00,,0823.4,5.00,0.00,29.0,28.2,00.0,37.8,30.8,05.6,0000.0,0010.56,0006.37,0006.11
2022-01-30 23:15:00,,0823.3,5.00,0.00,29.0,28.2,00.0,37.8,30.8,05.5,0000.0,0010.94,0006.42,0006.14
2022-01-30 23:16:00,,0823.3,5.00,0.00,29.0,28.2,00.0,37.8,30.8,05.5,0000.0,0010.96,0006.43,0006.15
2022-01-30 23:17:00,,0823.3,5.01,0.00,29.0,28.3,00.0,37.8,30.8,05.5,0005.0,0010.92,0006.43,0006.15
2022-01-30 23:18:00,,0823.3,5.01,0.00,29.0,28.3,00.0,37.8,30.8,05.5,0007.8,0010.76,0006.41,0006.13
2022-01-30 23:19:00,,0823.4,4.99,0.00,29.0,28.3,00.0,37.9,30.8,05.6,0008.4,0010.79,0006.42,0006.13
2022-01-30 23:20:00,,0823.3,5.02,0.00,29.0,28.3,00.0,37.9,30.8,05.5,0008.8,0010.71,0006.39,0006.11
2022-01-30 23:21:00,,0823.4,4.99,0.00,29.0,28.3,00.0,37.9,30.8,05.5,0000.0,0010.68,0006.36,0006.10
2022-01-30 23:22:00,,0823.4,5.00,0.00,29.0,28.3,00.0,37.9,30.8,05.4,0000.0,0010.66,0006.35,0006.09
2022-01-30 23:23:00,,0823.3,5.01,0.00,29.0,28.3,00.0,37.9,30.8,05.4,0000.0,0010.54,0006.37,0006.10
2022-01-30 23:24:00,,0823.3,4.98,0.00,29.0,28.3,00.0,37.9,30.9,05.4,0000.0,0010.31,0006.38,0006.11
2022-01-30 23:25:00,,0823.3,5.01,0.00,29.0,28.3,00.0,37.9,30.9,05.4,0000.0,0009.78,0006.34,0006.10
2022-01-30 23:26:00,,0823.3,5.01,0.00,29.0,28.3,00.0,37.9,30.9,05.4,0000.0,0009.37,0006.30,0006.08
2022-01-30 23:27:00,,0823.3,4.98,0.00,29.1,28.3,00.0,37.9,30.9,05.4,0000.0,0009.38,0006.30,0006.08
2022-01-30 23:28:00,,0823.3,5.02,0.00,29.0,28.3,00.0,37.9,30.9,05.4,0000.0,0009.37,0006.30,0006.09
2022-01-30 23:29:00,,0823.3,4.99,0.00,29.0,28.3,00.0,37.9,30.8,05.4,0000.0,0009.48,0006.31,0006.08
2022-01-30 23:30:00,,0823.4,5.01,0.00,29.0,28.3,00.0,37.9,30.8,05.5,0000.0,0009.46,0006.31,0006.07
2022-01-30 23:31:00,,0823.4,5.00,0.00,29.0,28.3,00.0,37.9,30.8,05.6,0000.0,0009.51,0006.33,0006.08
2022-01-30 23:32:00,,0823.3,4.99,0.00,29.1,28.3,00.0,37.9,30.8,05.4,0000.0,0009.46,0006.30,0006.06
2022-01-30 23:33:00,,0823.4,5.01,0.00,29.1,28.3,00.0,37.9,30.9,05.4,0000.0,0009.51,0006.30,0006.04
2022-01-30 23:34:00,,0823.4,4.98,0.00,29.1,28.3,00.0,37.9,30.9,05.3,0005.1,0009.46,0006.26,0006.00
2022-01-30 23:35:00,,0823.4,5.01,0.00,29.1,28.3,00.0,37.9,30.9,05.2,0006.1,0009.36,0006.22,0005.95
2022-01-30 23:36:00,,0823.4,4.99,0.00,29.1,28.3,00.0,38.0,30.9,05.2,0007.3,0009.38,0006.21,0005.92
2022-01-30 23:37:00,,0823.4,5.00,0.00,29.1,28.3,00.0,38.0,30.9,05.1,0000.4,0009.35,0006.19,0005.89
2022-01-30 23:38:00,,0823.4,5.01,0.00,29.1,28.3,00.0,38.0,30.9,05.1,0000.0,0009.33,0006.15,0005.87
2022-01-30 23:39:00,,0823.4,4.99,0.00,29.1,28.3,00.0,38.0,30.9,05.2,0000.0,0009.37,0006.13,0005.84
2022-01-30 23:40:00,,0823.4,5.01,0.00,29.1,28.3,00.0,38.0,30.9,05.2,0000.0,0009.31,0006.11,0005.81
2022-01-30 23:41:00,,0823.3,4.99,0.00,29.1,28.3,00.0,38.0,30.8,05.3,0000.0,0009.31,0006.07,0005.78
2022-01-30 23:42:00,,0823.3,5.00,0.00,29.1,28.3,00.0,38.0,30.9,05.3,0000.0,0009.32,0006.04,0005.75
2022-01-30 23:43:00,,0823.4,5.00,0.00,29.1,28.3,00.0,38.0,30.9,05.3,0000.0,0009.39,0006.04,0005.74
2022-01-30 23:44:00,,0823.4,5.00,0.00,29.1,28.3,00.0,38.0,30.9,05.3,0000.0,0009.36,0006.03,0005.74
2022-01-30 23:45:00,,0823.4,4.99,0.00,29.1,28.3,00.0,38.0,30.9,05.3,0000.0,0009.39,0006.04,0005.73
2022-01-30 23:46:00,,0823.4,5.01,0.00,29.1,28.3,00.0,38.0,30.9,05.3,0000.0,0009.41,0006.04,0005.74
2022-01-30 23:47:00,,0823.4,4.99,0.00,29.1,28.4,00.0,38.0,30.9,05.3,0000.0,0009.51,0006.02,0005.73
2022-01-30 23:48:00,,0823.4,5.00,0.00,29.1,28.4,00.0,38.0,30.9,05.3,0000.0,0009.56,0006.02,0005.73
2022-01-30 23:49:00,,0823.4,4.99,0.00,29.1,28.3,00.0,38.0,30.9,05.2,0000.0,0009.68,0006.03,0005.74
2022-01-30 23:50:00,,0823.4,5.01,0.00,29.1,28.3,00.0,38.0,30.9,05.1,0000.0,0009.93,0006.01,0005.72
2022-01-30 23:51:00,,0823.4,5.00,0.00,29.1,28.4,00.0,38.0,30.9,05.3,0000.0,0009.85,0005.98,0005.72
2022-01-30 23:52:00,,0823.4,5.01,0.00,29.1,28.4,00.0,38.0,30.9,05.4,0000.0,0009.99,0006.01,0005.73
2022-01-30 23:53:00,,0823.4,4.99,0.00,29.1,28.4,00.0,38.0,30.9,05.5,0000.0,0010.04,0006.03,0005.73
2022-01-30 23:54:00,,0823.4,5.01,0.00,29.1,28.3,00.0,38.0,30.9,05.5,0000.0,0010.06,0006.04,0005.73
2022-01-30 23:55:00,,0823.4,5.01,0.00,29.1,28.3,00.0,38.0,30.8,05.8,0000.0,0010.00,0006.01,0005.72
2022-01-30 23:56:00,,0823.4,4.98,0.00,29.1,28.3,00.0,38.0,30.8,05.8,0000.0,0010.13,0005.99,0005.70
2022-01-30 23:57:00,,0823.4,5.01,0.00,29.1,28.3,00.0,38.0,30.8,05.6,0000.0,0010.48,0006.00,0005.70
2022-01-30 23:58:00,,0823.3,4.98,0.00,29.1,28.3,00.0,38.0,30.8,05.7,0000.0,0010.52,0006.01,0005.70
2022-01-30 23:59:00,,0823.3,5.02,0.00,29.1,28.3,00.0,38.0,30.8,06.0,0000.0,0010.69,0006.00,0005.69
